Location: Arboyeti
(42.1122°N, 44.6017°E)
Time: 16:06:12
(UTC+00:00)

Cosmos 1892 - Pass Details

Date: 19 April 2021
Orbit: 502 x 524 km, 82.5° (Epoch: 07 May)

Event Time Altitude Azimuth Distance (km) Brightness Sun altitude
Rises 16:25:21 0° 355° (N) 2,612 6.7 -7.5°
Reaches altitude 10° 16:27:30 10° 359° (N) 1,725 5.7 -7.8°
Maximum altitude 16:31:15 61° 80° (E) 578 2.7 -8.5°
Drops below altitude 10° 16:34:58 10° 162° (SSE) 1,720 5.0 -9.1°
Enters shadow 16:36:45 - 165° (SSE) 2,451 5.8 -9.4°
